Погода в Халикунасе

Греция     39°27′26″N   19°52′14″E
темп.,
°C
ветер,
м/с
пор.,
м/с
влажн.,
%
обл.,
%
осадки,
мм/ч
давл.,
гПа
погр.,
м
18 мая, вт
вт1800:00+19вюв45895 0.0 1011123
03:00+19вюв459077 0.0 1011125
06:00+19вюв34890 0.0 1012126
09:00+18ююв22890 0.0 101394
12:00+19з238613 0.0 1014239
15:00+19сз67800 0.0 1014282
18:00+19зсз79730 0.0 1015269
21:00+19сз567647 0.0 1014125
19 мая, ср
ср1900:00+19сз457727 0.0 1015129
03:00+19сз34751 0.0 1015100
06:00+18с227319 0.0 101473
09:00+19юв22762 0.0 101577
12:00+19ю34685 0.0 1015197
15:00+19ю34651 0.0 1015277
18:00+20ю33630 0.0 1014290
21:00+20ююв227120 0.0 101327
20 мая, чт
чт2000:00+19с11745 0.0 101311
03:00+18с22710 0.0 101271
06:00+18с23743 0.0 1012186
09:00+18сз567827 0.0 1012351
12:00+18сз887516 0.0 1013429
15:00+18сз786998 0.0 1013500
18:00+18сз8867100 0.0 1012570
21:00+17сз7869100 0.0 1012541
21 мая, пт
пт2100:00+17сз10117146 0.0 10131040
03:00+17сз101168100 0.0 1012956
06:00+17ссз7866100 0.0 1011645
09:00+17ссз67628 0.0 1012602
12:00+18сз98620 0.0 1012526
15:00+18ссз1313630 0.0 1013779
18:00+18сз1615670 0.0 1013861
21:00+18ссз1314675 0.0 1014710
22 мая, сб
сб2200:00+18ссз1011680 0.0 1015656
03:00+18ссз911670 0.0 1015525
06:00+17ссз78660 0.0 1015449
09:00+18ссз67610 0.0 1016516
12:00+18сз77615 0.0 1017411
15:00+19сз1010630 0.0 1017464
18:00+19сз910650 0.0 1016391
21:00+19сз910690 0.0 1016325